Flag for Canada Weather past 2 weeks in Red Deer, Alberta, Canada

Now
54 °F

Mostly cloudy.


Feels Like: 51 °F
Forecast: 47 / 67 °F
Wind: 9 mph from North

Location: Red Deer

Current Time: Jul 7, 2015 at 10:00:05 AM

Latest Report: Jul 7, 2015 at 9:00 AM


Visibility: 12 mi

Pressure: 30.22 "Hg (27.27 "Hg at 857m altitude)

Humidity: 88%

Dew point: 50 °F

Location of Red DeerLocation

Historic Weather in Red Deer — Graph

°F

Red Deer temperature yesterday

Maximum temperature yesterday: 73 °F (at 3:00 PM)
Minimum temperature yesterday: 41 °F (at 4:00 AM)
Average temperature yesterday: 58 °F

Past Weeks' High & Low Weather Summary

 TemperatureHumidityPressure
High84 °F (Jun 27, 4:00 PM)100% (Jul 2, 3:00 AM)30.26 "Hg (Jul 2, 3:00 AM)
Low41 °F (Jul 6, 4:00 AM)29% (Jun 24, 3:00 PM)29.81 "Hg (Jul 3, 7:00 PM)
Average64 °F67%30.06 "Hg
* Reported Jun 22 8:00 AM — Jul 7 8:00 AM, Red Deer, Weather by CustomWeather, © 2015

Note: Actual official high and low records may vary slightly from our data, if they occured in-between our weather recording intervals... More about our weather records

Advertising

Red Deer weather history for previous 24 hours

 ConditionsComfort  
Time TempWeatherWind HumidityBarometerVisibility
8:00 AM
Tue, Jul 7
54 °FMostly cloudy.7 mph88%30.21 "Hg12 mi
7:00 AM52 °FPassing clouds.7 mph88%30.19 "Hg12 mi
6:00 AM50 °FPassing clouds.6 mph88%30.16 "Hg8 mi
5:00 AM50 °FPassing clouds.7 mph88%30.15 "Hg8 mi
4:00 AM48 °FFog.No wind94%30.14 "Hg5 mi
3:00 AM48 °FPassing clouds.6 mph94%30.12 "Hg15 mi
2:00 AM48 °FPassing clouds.5 mph94%30.12 "Hg15 mi
1:00 AM52 °FPassing clouds.6 mph94%30.12 "Hg15 mi
12:00 AM57 °FPartly cloudy.5 mph82%30.12 "Hg15 mi
11:00 PM
Mon, Jul 6
57 °FPassing clouds.7 mph82%30.11 "Hg15 mi
10:00 PM59 °FOvercast.9 mph82%30.11 "Hg15 mi
9:00 PM61 °FCloudy.9 mph72%30.10 "Hg15 mi
8:00 PM66 °FScattered showers. Cloudy.8 mph52%30.06 "Hg15 mi
7:00 PM72 °FCloudy.3 mph50%30.06 "Hg15 mi
6:00 PM73 °FPartly sunny.9 mph38%30.06 "Hg15 mi
5:00 PM73 °FBroken clouds.12 mph44%30.06 "Hg15 mi
4:00 PM73 °FBroken clouds.14 mph47%30.06 "Hg15 mi
3:00 PM73 °FPassing clouds.15 mph44%30.08 "Hg15 mi
2:00 PM70 °FPassing clouds.16 mph50%30.10 "Hg15 mi
1:00 PM68 °FPassing clouds.15 mph53%30.12 "Hg15 mi
12:00 PM64 °FScattered clouds.17 mph56%30.14 "Hg15 mi
11:00 AM64 °FPassing clouds.17 mph52%30.15 "Hg15 mi
10:00 AM61 °FPassing clouds.20 mph55%30.17 "Hg15 mi
Weather by CustomWeather, © 2015

See weather overviewHow to use our weather pages